Location: Recife
(8.0585°S, 34.8848°W)
Time: 12:53:33
(UTC-03:00)

Vanguard 1 Rocket - All Passes

Search period start: 14 April 2026 00:00
Search period end: 24 April 2026 00:00
Orbit: 654 x 4213 km, 34.3° (Epoch: 14 April)

Date Brightness Start Highest point End Pass type
(mag) Time Alt. Az. Time Alt. Az. Time Alt. Az.
14 Apr - 05:31:37 10° NNW 05:37:05 22° NNE 05:41:04 10° E daylight
14 Apr - 07:57:42 10° WNW 08:02:18 38° SW 08:06:28 10° SE daylight
14 Apr - 12:55:28 10° S 12:58:58 12° SSE 13:03:15 10° SE daylight
14 Apr - 15:17:18 10° SW 15:28:24 44° SE 15:48:13 10° ENE daylight
14 Apr - 17:42:19 10° WSW 17:58:47 80° NW 18:25:07 10° NE visible
14 Apr - 20:13:21 10° W 20:32:48 35° NW 20:54:46 10° NNE visible
14 Apr - 23:04:07 10° NW 23:11:07 12° NNW 23:17:36 10° N visible
15 Apr - 04:19:37 10° N 04:23:39 13° NNE 04:26:51 10° NE visible
15 Apr - 06:44:13 10° NW 06:50:21 79° NE 06:54:48 10° ESE daylight
15 Apr - 09:14:46 10° SSW 09:15:33 10° SSW 09:16:22 10° SSW daylight
15 Apr - 14:06:04 10° SSW 14:14:10 26° SSE 14:27:21 10° E daylight
15 Apr - 16:29:34 10° SW 16:43:14 76° SE 17:07:51 10° ENE daylight
15 Apr - 18:57:10 10° WSW 19:15:28 50° NW 19:40:17 10° NE visible
15 Apr - 21:36:17 10° WNW 21:51:59 19° NNW 22:07:11 10° NNE visible
16 Apr - 05:30:58 10° NNW 05:38:00 35° NNE 05:42:36 10° E daylight
16 Apr - 07:58:57 10° W 08:02:56 24° SSW 08:06:34 10° SSE daylight
16 Apr - 12:55:50 10° S 13:00:06 14° SSE 13:05:38 10° SE daylight
16 Apr - 15:17:39 10° SW 15:28:38 52° SE 15:49:05 10° ENE daylight
16 Apr - 17:42:58 10° WSW 17:58:54 68° NW 18:24:38 10° NE visible
16 Apr - 20:15:26 10° W 20:33:32 29° NNW 20:53:57 10° NNE visible
17 Apr - 04:17:48 10° NNW 04:24:48 21° NNE 04:29:33 10° ENE visible
17 Apr - 06:44:41 10° WNW 06:50:57 63° SW 06:55:24 10° SE daylight
17 Apr - 14:06:23 10° SSW 14:14:43 31° SE 14:28:59 10° E daylight
17 Apr - 16:30:03 10° SW 16:43:18 89° SE 17:07:45 10° NE daylight
17 Apr - 18:58:28 10° W 19:15:54 41° NNW 19:39:30 10° NNE visible
17 Apr - 21:40:39 10° NW 21:53:44 16° NNW 22:06:22 10° N visible
18 Apr - 03:04:44 10° N 03:10:38 14° NNE 03:15:06 10° NE visible
18 Apr - 05:30:43 10° NW 05:38:48 57° NNE 05:43:42 10° ESE daylight
18 Apr - 08:00:44 10° WSW 08:03:37 15° SSW 08:06:17 10° S daylight
18 Apr - 12:56:01 10° S 13:01:02 17° SSE 13:08:00 10° ESE daylight
18 Apr - 15:18:02 10° SW 15:28:47 62° SE 15:49:35 10° ENE daylight
18 Apr - 17:43:49 10° WSW 17:59:10 57° NW 18:23:58 10° NE visible
18 Apr - 20:18:07 10° WNW 20:34:39 24° NNW 20:53:06 10° NNE visible
19 Apr - 01:52:13 10° N 01:55:13 11° NNE 01:57:55 10° NNE visible
19 Apr - 04:16:48 10° NNW 04:25:51 32° NNE 04:31:18 10° E visible
19 Apr - 06:45:28 10° WNW 06:51:29 39° SW 06:55:47 10° SSE daylight
19 Apr - 14:06:42 10° SSW 14:15:06 38° SE 14:30:18 10° E daylight
19 Apr - 16:30:39 10° WSW 16:43:29 78° NW 17:07:23 10° NE daylight
19 Apr - 19:00:09 10° W 19:16:37 34° NNW 19:38:34 10° NNE visible
19 Apr - 21:45:51 10° NW 21:55:57 13° NNW 22:05:41 10° N visible
20 Apr - 03:02:48 10° NNW 03:11:56 21° NNE 03:17:57 10° ENE visible
20 Apr - 05:30:46 10° NW 05:39:26 87° NE 05:44:31 10° SE daylight
20 Apr - 12:56:09 10° SSW 13:01:47 20° SE 13:10:09 10° ESE daylight
20 Apr - 15:18:28 10° SW 15:28:56 75° SE 15:49:47 10° ENE daylight
20 Apr - 17:44:56 10° W 17:59:39 46° NNW 18:23:08 10° NE visible
20 Apr - 20:21:32 10° WNW 20:36:10 19° NNW 20:52:14 10° NNE visible
21 Apr - 01:48:34 10° NNW 01:56:53 16° NNE 02:03:00 10° NE visible
21 Apr - 04:16:11 10° NW 04:26:44 47° NNE 04:32:37 10° ESE visible
21 Apr - 06:46:37 10° W 06:51:59 26° SW 06:55:58 10° SSE daylight
21 Apr - 14:07:02 10° SW 14:15:23 47° SE 14:31:14 10° ENE daylight
21 Apr - 16:31:25 10° WSW 16:43:49 64° NW 17:06:48 10° NE daylight
21 Apr - 19:02:19 10° WNW 19:17:38 27° NNW 19:37:34 10° NNE visible
21 Apr - 21:51:24 10° NNW 21:58:35 11° N 22:05:29 10° N visible
22 Apr - 00:33:56 10° N 00:40:18 12° NNE 00:45:38 10° NNE visible
22 Apr - 03:01:30 10° NNW 03:13:05 30° NNE 03:19:54 10° E visible
22 Apr - 05:31:07 10° WNW 05:39:58 64° SW 05:45:06 10° SE daylight
22 Apr - 12:56:18 10° SSW 13:02:21 25° SE 13:11:58 10° E daylight
22 Apr - 15:19:01 10° SW 15:29:10 90° SSE 15:49:41 10° NE daylight
22 Apr - 17:46:22 10° W 18:00:23 38° NNW 18:22:08 10° NNE visible
22 Apr - 20:25:42 10° NW 20:38:09 16° NNW 20:51:28 10° NNE visible
22 Apr - 23:17:56 10° N 23:21:48 11° N 23:25:23 10° NNE visible
23 Apr - 01:46:37 10° NNW 01:58:19 22° NNE 02:05:58 10° ENE visible
23 Apr - 04:15:50 10° NW 04:27:29 67° NNE 04:33:36 10° ESE visible
23 Apr - 06:48:12 10° W 06:52:30 18° SW 06:55:55 10° S daylight
23 Apr - 11:47:43 10° SSE 11:49:16 11° SSE 11:51:00 10° SE daylight
23 Apr - 14:07:25 10° SW 14:15:37 58° SE 14:31:51 10° ENE daylight
23 Apr - 16:32:24 10° WSW 16:44:21 52° NNW 17:06:01 10° NE daylight
23 Apr - 19:05:05 10° WNW 19:19:00 22° NNW 19:36:31 10° NNE visible
23 Apr - 21:55:51 10° NNW 22:01:28 11° N 22:06:52 10° N visible
